Weather reports worldwide

Advertisment
Ioannina, Greece (16642): temperature & dewpoint: 15.11.2017 15:00:00 - 21.11.2017 15:00:00 (EET)Ioannina, Greece (16642): reduced air pressure: 15.11.2017 15:00:00 - 21.11.2017 15:00:00 (EET)Ioannina, Greece (16642): visibility: 15.11.2017 15:00:00 - 21.11.2017 15:00:00 (EET)
Date & Time tt [°C] td [°C] ppp [hPa] vv [km]
21.11.2017 15:00:00 - - - -
21.11.2017 14:00:00 11,2 -2,1 1020,7 10
21.11.2017 13:00:00 - - - -
21.11.2017 12:00:00 8,0 -3,0 - 10
21.11.2017 11:00:00 6,0 -0,3 1023,8 10
21.11.2017 10:00:00 4,0 0,0 - 10
21.11.2017 09:00:00 1,0 -1,0 - 10
21.11.2017 08:00:00 -1,0 -2,3 1024,2 10
21.11.2017 07:00:00 - - - -
21.11.2017 06:00:00 - - - -
21.11.2017 05:00:00 - - - -
21.11.2017 04:00:00 - - - -
21.11.2017 03:00:00 - - - -
21.11.2017 02:00:00 - - - -
21.11.2017 01:00:00 - - - -
21.11.2017 00:00:00 - - - -
20.11.2017 23:00:00 - - - -
20.11.2017 22:00:00 - - - -
20.11.2017 21:00:00 3,0 -1,0 - 10
20.11.2017 20:00:00 5,4 -0,4 1018,6 10
20.11.2017 19:00:00 5,0 0,0 - 10
20.11.2017 18:00:00 7,0 -3,0 - 10
20.11.2017 17:00:00 8,0 -2,8 1016,2 10
20.11.2017 16:00:00 - - - -
20.11.2017 15:00:00 - - - -
20.11.2017 14:00:00 10,4 -3,5 1014,0 10
20.11.2017 13:00:00 11,0 -2,0 - 10
20.11.2017 12:00:00 10,0 2,0 - 10
20.11.2017 11:00:00 8,2 4,1 1014,0 10
20.11.2017 10:00:00 6,0 4,0 - 10
20.11.2017 09:00:00 6,0 6,0 - 10
20.11.2017 08:00:00 6,4 5,9 1012,7 10
20.11.2017 07:00:00 - - - -
20.11.2017 06:00:00 - - - -
20.11.2017 05:00:00 - - - -
20.11.2017 04:00:00 - - - -
20.11.2017 03:00:00 - - - -
20.11.2017 02:00:00 - - - -
20.11.2017 01:00:00 - - - -
20.11.2017 00:00:00 - - - -
19.11.2017 23:00:00 - - - -
19.11.2017 22:00:00 - - - -
19.11.2017 21:00:00 10,0 8,0 - 10
19.11.2017 20:00:00 10,0 7,9 1011,6 10
19.11.2017 19:00:00 10,0 8,0 - 10
19.11.2017 18:00:00 11,0 9,0 - 10
19.11.2017 17:00:00 11,8 9,4 1010,6 10
19.11.2017 16:00:00 - - - -
19.11.2017 15:00:00 - - - -
19.11.2017 14:00:00 14,8 7,6 1010,6 10
19.11.2017 13:00:00 14,0 8,0 - 10
19.11.2017 12:00:00 13,0 9,0 - 10
19.11.2017 11:00:00 12,4 9,2 1012,5 10
19.11.2017 10:00:00 12,0 9,0 - 10
19.11.2017 09:00:00 10,0 9,0 - 10
19.11.2017 08:00:00 8,4 8,4 1012,2 10
19.11.2017 07:00:00 - - - -
19.11.2017 06:00:00 - - - -
19.11.2017 05:00:00 - - - -
19.11.2017 04:00:00 - - - -
19.11.2017 03:00:00 - - - -
19.11.2017 02:00:00 - - - -
19.11.2017 01:00:00 - - - -
19.11.2017 00:00:00 - - - -
18.11.2017 23:00:00 - - - -
18.11.2017 22:00:00 - - - -
18.11.2017 21:00:00 12,0 9,0 - 10
18.11.2017 20:00:00 11,4 9,4 1011,1 10
18.11.2017 19:00:00 13,0 10,0 - 10
18.11.2017 18:00:00 13,0 10,0 - 10
18.11.2017 17:00:00 13,2 8,9 1010,2 10
18.11.2017 16:00:00 - - - -
18.11.2017 15:00:00 - - - -
18.11.2017 14:00:00 16,2 7,9 1009,8 10
18.11.2017 13:00:00 16,0 9,0 - 10
18.11.2017 12:00:00 14,0 10,0 - 10
18.11.2017 11:00:00 13,4 10,7 1012,0 10
18.11.2017 10:00:00 12,0 10,0 - 10
18.11.2017 09:00:00 10,0 10,0 - 10
18.11.2017 08:00:00 9,6 8,8 1012,5 10
18.11.2017 07:00:00 - - - -
18.11.2017 06:00:00 - - - -
18.11.2017 05:00:00 - - - -
18.11.2017 04:00:00 - - - -
18.11.2017 03:00:00 - - - -
18.11.2017 02:00:00 - - - -
18.11.2017 01:00:00 - - - -
18.11.2017 00:00:00 - - - -
17.11.2017 23:00:00 - - - -
17.11.2017 22:00:00 - - - -
17.11.2017 21:00:00 10,0 9,0 - 10
17.11.2017 20:00:00 9,8 9,0 1012,2 10
17.11.2017 19:00:00 12,0 9,0 - 10
17.11.2017 18:00:00 13,0 9,0 - 10
17.11.2017 17:00:00 13,0 9,5 1011,4 10
17.11.2017 16:00:00 - - - -
17.11.2017 15:00:00 - - - -
17.11.2017 14:00:00 15,2 8,1 1012,3 10
17.11.2017 13:00:00 16,0 8,0 - 10
17.11.2017 12:00:00 15,0 8,0 - 10
17.11.2017 11:00:00 14,2 9,1 1013,4 10
17.11.2017 10:00:00 12,0 11,0 - 10
17.11.2017 09:00:00 10,0 10,0 - 10
17.11.2017 08:00:00 9,2 9,2 1014,3 10
17.11.2017 07:00:00 - - - -
17.11.2017 06:00:00 - - - -
17.11.2017 05:00:00 - - - -
17.11.2017 04:00:00 - - - -
17.11.2017 03:00:00 - - - -
17.11.2017 02:00:00 - - - -
17.11.2017 01:00:00 - - - -
17.11.2017 00:00:00 - - - -
16.11.2017 23:00:00 - - - -
16.11.2017 22:00:00 - - - -
16.11.2017 21:00:00 12,0 10,0 - 10
16.11.2017 20:00:00 12,6 9,5 1014,0 10
16.11.2017 19:00:00 13,0 10,0 - 10
16.11.2017 18:00:00 14,0 10,0 - 10
16.11.2017 17:00:00 15,2 10,7 1013,4 10
16.11.2017 16:00:00 - - - -
16.11.2017 15:00:00 - - - -
16.11.2017 14:00:00 17,2 9,6 1014,2 10
16.11.2017 13:00:00 16,0 10,0 - 10
16.11.2017 12:00:00 16,0 10,0 - 10
16.11.2017 11:00:00 15,4 10,1 1015,6 10
16.11.2017 10:00:00 14,0 10,0 - 10
16.11.2017 09:00:00 11,0 10,0 - 10
16.11.2017 08:00:00 10,4 7,9 1016,0 10
16.11.2017 07:00:00 - - - -
16.11.2017 06:00:00 - - - -
16.11.2017 05:00:00 - - - -
16.11.2017 04:00:00 - - - -
16.11.2017 03:00:00 - - - -
16.11.2017 02:00:00 - - - -
16.11.2017 01:00:00 - - - -
16.11.2017 00:00:00 - - - -
15.11.2017 23:00:00 - - - -
15.11.2017 22:00:00 - - - -
15.11.2017 21:00:00 11,0 10,0 - 10
15.11.2017 20:00:00 12,6 9,9 1015,9 10
15.11.2017 19:00:00 13,0 10,0 - 10
15.11.2017 18:00:00 13,0 10,0 - 10
15.11.2017 17:00:00 14,0 9,8 1015,3 10
15.11.2017 16:00:00 - - - -
15.11.2017 15:00:00 - - - -

tt = temperature
td = dewpoint
ppp = reduced air pressure
vv = visibility

Next stations